Starlink 11579

operational
NORAD ID: 63143 Int'l Des: 2025-043 Owner: SPXS Country: US Constellation: starlink
LEOCIRCULAR

Starlink 11579について

説明を読み込み中...

リアルタイム位置

3D地球を読み込み中...

次回通過

高度履歴

Altitude vs Time

uPlot chart will show altitude changes over time

軌道要素

1 63143U 25043M 26036.12062669 .00235180 00000-0 17818-2 0 9996
2 63143 43.0029 86.6897 0002692 257.8731 102.1835 15.70881193 54230
Epoch: Feb 5, 2026 • Age: 10 hours

現在のステータス

高度 360.7 km
速度 7.70 km/s
衛星直下点 43.00°N, 141.98°W
打ち上げ日 Mar 3, 2025
運用期間 0.9 years
タイプ internet

技術仕様

分類 Payload
質量 960.00 kg
乾燥質量 910.00 kg
総質量 960.00 kg
長さ 0.30 m
直径 4.10 m
スパン 29.00 m
形状 Box + pan
製造者 SPXS
バスタイプ Starlink V2MD
フェーズステータス In Orbit
所有者/国 SPXS/US

大規模コンステレーション

Loading constellations...